Theta_e
309 307 308 309 307 307 307 306 305 305 307 305 308 308 307 308 308 308 309 310 310 310 314 314 314 313 313 313 313 313 313 313 314 314 313 313 313 313 312 311 311 308 306 305
307 307 307 306 305 306 306 307 307 307 307 305 307 308 309 308 309 309 309 309 311 313 314 314 314 313 313 313 313 314 313 312 312 312 313 312 314 313 312 312 310 308 306 304
308 309 307 306 307 307 305 307 308 307 305 305 305 309 308 309 308 309 311 312 312 314 313 314 313 312 312 312 313 314 314 314 313 312 311 311 310 310 311 312 310 309 307 304
306 307 307 307 308 306 308 306 307 307 307 309 307 312 309 309 309 308 311 311 313 313 314 313 312 312 312 313 313 312 311 311 312 311 310 310 310 311 312 313 313 311 308 306
308 307 307 308 308 306 308 308 307 307 307 306 306 308 312 307 308 309 307 311 312 312 314 313 312 313 313 314 313 313 312 312 311 310 310 309 309 309 309 310 311 310 308 306
306 306 306 307 307 306 306 308 304 303 305 309 308 308 316 307 308 308 309 311 312 313 313 311 312 313 313 313 312 312 312 311 310 310 308 309 309 308 307 307 308 309 308 306
307 307 307 307 308 306 307 307 310 311 309 314 306 307 313 310 306 309 308 310 311 311 310 311 312 312 310 311 311 311 311 310 308 308 308 307 306 306 307 307 307 306 307 306
310 316 306 305 308 310 306 309 313 315 315 315 305 309 314 310 309 310 310 310 309 311 310 311 309 309 309 309 310 311 311 311 309 308 305 304 305 306 306 306 306 305 306 306
309 310 305 304 306 307 307 308 308 311 308 310 312 309 310 310 308 307 308 309 310 311 307 308 309 308 307 307 308 310 310 310 308 308 306 304 303 303 303 303 303 303 304 304
309 312 308 306 305 305 306 305 309 306 312 314 312 311 311 311 309 308 306 305 304 303 304 305 306 306 306 305 306 307 307 308 308 306 306 306 304 303 301 301 301 301 302 303
307 310 313 310 308 311 309 306 306 306 309 313 313 312 311 310 308 306 302 302 302 302 298 298 299 301 301 301 300 300 303 304 305 305 305 305 304 303 303 303 301 301 300 301
309 313 314 311 308 306 306 309 308 312 312 311 312 313 310 309 308 305 301 300 297 297 296 297 296 295 296 297 298 297 296 298 301 303 305 304 303 301 302 301 302 302 300 300
310 311 313 310 308 306 310 309 310 310 310 312 313 312 306 304 304 302 297 296 294 293 292 292 293 293 295 293 292 293 294 293 295 299 302 303 302 302 302 304 302 300 301 301
309 309 312 314 312 310 311 307 304 304 305 307 306 306 304 303 299 295 297 294 292 291 290 290 290 291 292 293 293 292 293 294 292 293 297 300 301 301 302 303 302 300 301 300
303 307 308 307 302 301 301 301 300 299 300 300 300 299 298 295 294 292 295 293 293 292 289 289 289 290 289 289 290 292 292 292 292 292 292 296 299 298 299 301 302 300 298 300
297 299 298 297 298 299 299 297 296 296 296 294 294 296 293 294 292 291 291 291 293 291 288 288 288 288 287 288 288 287 288 289 291 289 290 292 297 299 298 297 299 300 298 296
296 296 294 297 296 294 291 292 294 294 292 294 296 292 290 292 292 291 290 290 292 288 288 288 288 287 287 287 286 286 286 286 288 289 289 289 289 296 298 298 296 295 298 296
293 285 284 283 281 287 292 291 293 295 292 292 291 290 291 291 292 292 289 289 288 288 288 288 287 287 286 286 286 286 286 286 286 286 288 287 287 287 292 298 298 297 295 297
292 293 285 284 280 289 293 290 288 288 288 288 288 288 289 289 292 291 289 289 288 287 287 287 286 286 286 286 285 285 286 286 285 285 285 285 284 286 286 288 295 296 294 295
290 292 291 280 286 285 287 287 290 286 286 285 287 286 286 288 290 289 288 288 288 288 287 287 286 286 285 285 284 284 284 284 284 285 284 285 284 283 284 284 288 293 294 292
278 275 287 277 282 282 287 289 288 284 286 287 288 288 286 287 287 288 289 289 288 287 287 286 285 285 285 285 283 283 282 283 282 283 283 284 284 283 283 283 284 288 293 291
285 279 275 271 273 282 287 288 287 288 289 288 288 288 287 288 288 288 289 288 287 286 285 285 284 284 284 283 282 281 281 281 281 281 282 283 283 283 283 282 283 284 288 290
286 286 282 283 283 286 288 288 289 289 288 288 288 288 288 287 288 288 286 285 284 283 283 282 281 281 281 280 279 279 280 279 279 279 280 281 282 283 283 282 282 283 284 288
286 288 287 287 289 288 289 289 289 289 288 288 288 287 286 285 285 283 282 281 280 280 280 279 278 278 277 277 277 277 276 276 275 275 277 278 280 282 282 282 281 281 282 284
288 287 285 287 288 289 288 289 288 288 287 286 286 284 282 280 281 279 278 278 277 276 276 275 275 275 274 274 274 274 273 273 272 271 272 274 275 276 279 281 280 280 281 282
289 289 288 288 289 289 289 289 288 286 285 283 281 282 282 277 276 274 274 273 273 272 272 271 271 270 270 269 269 269 269 268 267 267 268 270 271 270 274 276 280 280 280 281
Wind_Speed
4 3 7 15 12 4 2 4 6 9 14 7 17 18 15 27 26 33 39 38 36 38 35 30 27 25 22 22 24 27 31 35 39 44 48 54 55 55 54 54 51 50 50 48
4 7 14 2 4 7 6 5 10 6 11 4 12 24 21 20 24 34 29 33 34 33 35 31 28 25 20 15 14 17 22 30 36 42 47 53 53 58 57 56 56 53 52 51
9 5 5 6 5 7 5 6 9 9 8 5 8 9 5 4 12 21 24 31 26 26 29 25 24 24 21 19 17 18 18 22 28 35 43 51 55 56 59 61 61 58 57 54
6 4 7 4 9 7 4 9 11 6 4 3 5 12 4 6 7 6 28 16 17 19 23 24 24 20 24 28 30 25 22 24 28 33 40 48 55 59 59 57 60 62 60 58
6 5 3 4 8 6 9 1 2 3 3 4 3 3 2 3 7 12 5 8 9 21 35 29 17 25 29 31 36 37 32 28 28 32 37 42 48 54 59 56 59 61 61 60
7 1 5 7 2 5 3 3 5 4 2 4 8 7 16 4 6 3 2 13 27 27 25 9 18 34 37 40 37 36 35 29 28 31 33 40 43 49 55 56 55 55 58 61
3 5 4 3 2 1 3 5 4 4 1 11 4 4 16 4 8 9 10 16 21 20 12 2 24 33 34 31 32 29 30 31 31 30 31 35 41 45 50 53 52 53 54 60
3 13 8 6 8 8 8 9 5 6 16 20 6 11 20 8 3 12 14 20 7 12 9 26 33 34 28 23 23 24 28 29 29 29 28 33 36 39 44 48 50 53 51 53
5 12 2 4 2 4 3 5 4 5 2 3 12 17 25 8 5 6 5 9 13 20 30 27 29 30 28 28 29 26 26 25 26 27 26 25 28 34 40 44 46 49 47 49
2 10 6 2 3 3 6 2 2 1 3 16 13 17 19 21 8 8 11 23 28 25 27 26 24 25 25 26 25 22 23 25 25 24 24 26 26 28 34 37 42 45 44 46
2 3 16 2 7 8 4 5 2 3 9 16 21 17 17 11 10 15 13 18 24 28 28 29 28 26 26 26 30 31 28 26 25 25 23 22 24 27 26 30 36 40 41 44
8 4 12 9 7 8 9 13 13 13 13 12 17 21 10 10 12 17 16 17 17 20 23 25 27 29 30 30 30 32 33 33 32 30 27 25 23 23 26 27 30 32 37 42
3 4 7 8 1 3 2 3 1 3 3 10 10 7 8 16 22 29 17 13 15 21 27 32 34 34 35 37 37 35 33 35 35 33 30 26 24 25 22 24 30 34 34 38
5 3 8 11 9 8 4 3 3 4 4 11 10 16 21 24 11 18 18 18 18 20 25 26 28 33 33 34 37 38 37 36 38 37 33 31 31 26 25 24 25 28 35 37
2 11 14 12 6 5 7 12 15 16 17 13 23 27 21 3 5 11 13 17 22 25 30 31 29 28 30 33 33 34 35 38 41 39 37 32 32 32 26 28 29 26 28 33
4 3 6 5 11 11 16 20 22 21 22 20 19 13 5 4 10 11 17 17 14 20 30 35 35 33 34 31 33 33 31 32 34 39 38 39 34 33 34 29 29 31 29 29
4 3 2 11 13 10 10 16 18 16 2 1 4 2 4 4 9 11 19 20 16 22 29 35 37 36 34 34 34 33 33 33 32 36 39 39 38 35 34 32 30 31 32 30
5 2 2 4 3 4 4 5 5 2 2 3 4 5 6 11 19 18 19 9 21 32 33 35 37 35 34 34 35 37 35 35 37 36 37 40 41 39 35 34 33 29 29 33
14 8 3 3 5 7 7 2 1 3 5 6 5 5 9 14 18 23 15 17 24 32 35 39 37 35 36 37 37 38 38 37 37 37 40 40 40 41 39 35 35 33 28 28
2 11 6 2 4 6 5 4 2 5 5 8 12 7 11 12 7 13 19 21 30 37 37 40 39 38 40 40 36 37 39 40 40 41 43 43 44 44 43 38 34 36 33 26
2 3 10 2 3 8 8 7 3 5 6 8 14 21 18 6 16 33 34 33 37 40 44 41 40 41 41 42 42 43 43 41 42 43 45 46 47 48 46 45 37 32 35 32
4 3 3 2 2 8 4 3 5 9 28 27 28 28 25 30 34 34 35 37 40 43 46 44 45 47 49 47 43 44 45 44 44 46 48 50 52 53 51 47 44 35 32 34
4 6 4 9 6 6 9 21 38 37 27 34 32 33 31 30 30 28 35 40 40 41 43 43 43 51 53 49 46 48 50 47 50 53 54 54 54 55 55 52 47 42 35 32
4 9 7 7 14 20 32 35 35 36 35 32 30 26 19 24 33 35 38 40 38 39 37 37 40 43 48 46 42 42 48 53 55 55 59 61 60 56 56 54 46 43 41 35
7 5 6 13 20 22 31 32 32 28 23 20 23 25 26 27 35 27 37 40 41 41 39 37 38 40 44 41 40 42 47 50 56 62 63 61 61 58 53 54 50 42 40 36
12 14 9 14 28 22 26 21 25 21 21 21 24 31 33 30 36 36 42 38 39 43 40 41 42 42 45 43 45 49 52 56 59 60 58 55 53 53 51 50 54 45 37 33
Wind_Direction
154 122 195 219 203 157 195 232 254 263 273 309 274 269 259 266 270 264 270 279 283 288 304 310 313 313 313 310 302 291 278 266 254 247 242 240 240 240 237 237 234 234 233 229
61 220 227 102 163 220 237 271 271 276 270 181 279 291 273 249 255 261 267 277 285 301 312 321 325 327 326 322 322 308 292 276 265 256 250 245 244 241 239 238 235 232 232 231
193 217 163 192 228 234 193 224 256 250 329 270 310 274 254 272 235 267 273 271 284 302 318 339 339 342 335 334 328 311 298 287 276 264 254 248 243 240 238 236 235 233 230 230
240 258 179 157 239 165 264 234 251 277 4 269 32 297 178 221 255 273 267 285 284 329 335 336 353 12 14 10 0 336 300 285 280 269 257 252 248 243 243 241 238 234 229 228
245 170 157 173 220 150 229 104 177 170 201 349 333 296 355 139 253 263 313 308 337 335 341 335 10 11 5 357 350 345 343 312 285 272 264 258 251 249 248 245 242 237 231 228
248 327 196 215 180 194 122 81 48 62 58 277 192 191 305 152 201 268 297 335 331 321 306 339 1 355 352 347 346 341 337 334 310 291 272 261 257 252 250 248 245 241 235 229
307 230 250 187 194 90 103 65 306 312 56 260 178 237 245 178 248 313 300 297 288 307 314 345 349 350 348 352 345 347 349 350 337 311 287 270 259 253 252 252 251 248 242 232
267 290 181 185 209 186 183 177 202 257 272 276 133 253 263 194 229 312 311 301 307 345 338 340 355 357 356 352 339 336 344 344 350 345 317 288 274 262 257 256 254 251 248 245
219 262 207 208 144 174 158 182 240 276 338 297 265 268 287 237 353 25 13 23 334 349 0 355 343 345 349 355 356 350 341 344 346 344 338 318 291 275 267 261 259 256 252 247
303 300 190 214 137 248 176 284 273 24 211 252 262 269 267 300 332 350 8 14 12 13 10 4 353 344 347 352 356 352 349 345 342 339 335 328 314 298 279 270 266 262 257 249
105 219 273 283 199 213 261 255 230 288 235 256 265 259 276 312 24 43 47 20 4 358 5 7 3 359 356 356 357 358 352 348 343 339 328 320 315 302 292 285 274 267 262 254
187 217 257 231 232 214 198 228 234 245 254 241 249 248 323 9 355 350 8 9 27 11 2 358 354 351 350 350 345 351 353 352 349 344 335 324 309 298 293 288 285 276 266 258
177 215 276 297 318 34 165 160 111 288 229 253 275 275 353 330 327 335 7 31 28 18 9 5 1 357 349 352 352 349 350 350 348 347 342 342 330 306 296 291 287 281 269 261
236 214 255 265 268 313 237 285 327 287 269 292 271 295 296 302 332 347 356 355 2 4 353 352 356 354 353 349 347 349 346 345 345 343 342 345 344 333 306 290 278 270 272 265
346 264 263 268 310 325 278 280 275 267 264 268 280 279 289 30 8 355 332 328 338 342 344 345 348 345 342 343 343 341 343 344 339 337 338 345 346 345 332 307 291 282 266 259
3 316 346 299 296 288 286 282 275 277 277 268 262 262 343 321 330 323 319 316 317 326 333 338 341 338 337 341 337 337 340 340 335 334 339 342 337 341 348 335 306 289 284 274
210 227 235 273 294 312 291 258 263 267 60 292 286 56 279 259 280 304 313 313 303 323 326 330 331 332 332 332 331 332 337 336 334 334 339 336 337 329 334 341 337 309 287 280
235 119 110 258 49 255 288 47 100 160 137 142 173 211 241 274 286 291 308 292 319 326 325 322 322 321 321 323 324 325 328 332 334 334 329 332 333 332 328 324 330 333 308 281
218 217 251 207 205 308 294 135 97 102 258 211 204 242 270 298 275 277 270 273 308 317 314 317 314 314 317 321 321 320 322 323 325 328 330 333 333 329 332 322 318 322 322 301
80 210 195 131 206 220 246 244 201 111 275 218 211 231 252 286 279 277 274 269 307 312 310 312 311 310 312 314 313 312 313 315 316 317 320 324 327 329 327 325 314 309 313 308
24 14 216 237 260 285 248 228 189 78 268 234 283 282 272 242 271 283 287 286 300 305 308 309 307 304 304 309 309 308 308 308 311 312 314 316 319 320 322 320 317 309 303 301
180 153 211 83 56 286 219 256 175 274 300 295 292 288 291 288 296 288 289 290 298 300 304 304 306 304 304 305 303 302 300 304 303 304 306 308 311 313 315 315 316 310 298 295
274 189 202 188 217 242 247 266 284 287 286 287 286 293 296 288 283 279 292 297 297 300 301 301 298 301 301 301 300 299 299 298 299 300 301 301 303 306 307 309 310 307 299 290
266 233 237 279 256 257 268 276 279 283 283 288 290 296 298 297 296 299 301 301 299 298 296 296 294 292 293 296 295 291 292 294 295 296 296 298 299 298 299 301 301 300 296 293
223 166 216 256 274 278 271 271 278 287 286 288 296 305 308 308 306 304 300 300 299 298 299 297 294 291 291 293 289 288 287 288 291 293 295 294 294 295 293 291 293 291 288 285
222 244 248 259 271 275 279 292 293 293 302 306 310 308 308 309 309 310 304 303 302 303 303 300 297 293 292 291 287 286 287 290 292 293 293 293 292 291 289 287 286 285 281 271